TimeEST,TemperatureF,Dew PointF,Humidity,Sea Level PressureIn,VisibilityMPH,Wind Direction,Wind SpeedMPH,Gust SpeedMPH,PrecipitationIn,Events,Conditions,WindDirDegrees,DateUTC
12:54 AM,28.9,12.9,51,30.03,10.0,North,9.2,-,N/A,,Clear,360,2013-01-02 05:54:00
1:54 AM,27.0,12.9,56,30.05,10.0,North,5.8,-,N/A,,Clear,350,2013-01-02 06:54:00
2:54 AM,27.0,14.0,58,30.05,10.0,North,8.1,-,N/A,,Clear,360,2013-01-02 07:54:00
3:54 AM,27.0,12.9,56,30.04,10.0,North,10.4,-,N/A,,Clear,360,2013-01-02 08:54:00
4:54 AM,26.1,12.9,58,30.06,10.0,North,8.1,-,N/A,,Clear,360,2013-01-02 09:54:00
5:54 AM,25.0,12.9,60,30.06,10.0,North,5.8,-,N/A,,Clear,10,2013-01-02 10:54:00
6:54 AM,25.0,12.9,60,30.07,10.0,North,3.5,-,N/A,,Clear,350,2013-01-02 11:54:00
7:54 AM,25.0,12.9,60,30.09,10.0,NNW,3.5,-,N/A,,Clear,330,2013-01-02 12:54:00
8:54 AM,27.0,12.9,56,30.12,10.0,NNW,6.9,-,N/A,,Clear,340,2013-01-02 13:54:00
9:54 AM,28.9,14.0,54,30.13,10.0,West,5.8,-,N/A,,Clear,280,2013-01-02 14:54:00
10:54 AM,30.9,14.0,50,30.12,10.0,WNW,11.5,17.3,N/A,,Partly Cloudy,300,2013-01-02 15:54:00
11:54 AM,32.0,14.0,48,30.09,10.0,WNW,11.5,17.3,N/A,,Clear,300,2013-01-02 16:54:00
12:54 PM,33.1,14.0,46,30.08,10.0,NW,13.8,18.4,N/A,,Partly Cloudy,320,2013-01-02 17:54:00
1:54 PM,33.1,14.0,46,30.09,10.0,NW,13.8,-,N/A,,Clear,310,2013-01-02 18:54:00
2:54 PM,33.1,14.0,46,30.10,10.0,WNW,8.1,-,N/A,,Clear,300,2013-01-02 19:54:00
3:54 PM,32.0,12.9,45,30.12,10.0,WNW,11.5,-,N/A,,Clear,300,2013-01-02 20:54:00
4:54 PM,30.0,12.9,49,30.14,10.0,NW,6.9,-,N/A,,Clear,320,2013-01-02 21:54:00
5:54 PM,30.0,12.9,49,30.17,10.0,NW,8.1,-,N/A,,Clear,310,2013-01-02 22:54:00
6:54 PM,28.9,12.9,51,30.18,10.0,WNW,4.6,-,N/A,,Clear,300,2013-01-02 23:54:00
7:54 PM,28.0,12.9,53,30.19,10.0,West,5.8,-,N/A,,Clear,280,2013-01-03 00:54:00
8:54 PM,27.0,14.0,58,30.19,10.0,West,4.6,-,N/A,,Clear,270,2013-01-03 01:54:00
9:54 PM,27.0,15.1,61,30.20,10.0,WNW,6.9,-,N/A,,Clear,290,2013-01-03 02:54:00
10:54 PM,27.0,14.0,58,30.22,10.0,WNW,9.2,-,N/A,,Clear,290,2013-01-03 03:54:00
11:54 PM,27.0,14.0,58,30.23,10.0,WNW,8.1,-,N/A,,Clear,300,2013-01-03 04:54:00